$Date,$Time,DM0201B,DM0203B,DM0205B,DM0207B,DM0209B
11/01/98,00:00:01,28,330,-19,199,952
11/01/98,00:05:01,29,346,-19,199,952
11/01/98,00:10:01,35,343,-19,199,952
11/01/98,00:15:01,25,323,-19,201,952
11/01/98,00:20:01,16,318,-19,201,952
11/01/98,00:25:01,30,338,-19,202,952
11/01/98,00:30:01,51,332,-19,204,952
11/01/98,00:35:01,41,349,-19,205,952
11/01/98,00:40:01,35,328,-19,207,952
11/01/98,00:45:01,24,330,-19,206,952
11/01/98,00:50:01,33,335,-19,214,952
11/01/98,00:55:01,11,329,-19,219,952
11/01/98,01:00:01,32,347,-19,224,952
11/01/98,01:05:01,22,346,-18,228,952
11/01/98,01:10:01,45,335,-19,237,952
11/01/98,01:15:01,40,1,-18,244,952
11/01/98,01:20:01,38,2,-18,249,952
11/01/98,01:25:01,52,359,-19,227,952
11/01/98,01:30:01,26,333,-18,243,952
11/01/98,01:35:01,19,357,-18,245,952
11/01/98,01:40:01,32,17,-18,249,952
11/01/98,01:45:01,28,346,-18,224,952
11/01/98,01:50:01,46,340,-18,246,952
11/01/98,01:55:01,43,351,-18,281,952
11/01/98,02:00:01,40,340,-18,287,952
11/01/98,02:05:01,35,332,-18,288,952
11/01/98,02:10:01,36,1,-18,275,952
11/01/98,02:15:01,48,1,-17,288,952
11/01/98,02:20:01,31,343,-16,303,952
11/01/98,02:25:01,32,332,-15,315,952
11/01/98,02:30:01,17,336,-14,308,952
11/01/98,02:35:01,36,334,-13,302,952
11/01/98,02:40:01,21,341,-14,326,952
11/01/98,02:45:01,21,344,-13,339,950
11/01/98,02:50:01,27,348,-12,342,950
11/01/98,02:55:01,53,355,-13,336,950
11/01/98,03:00:01,40,9,-12,339,950
11/01/98,03:05:01,24,13,-12,357,950
11/01/98,03:10:01,37,359,-12,363,950
11/01/98,03:15:01,57,14,-11,367,950
11/01/98,03:20:01,54,358,-12,368,950
11/01/98,03:25:01,47,5,-12,380,950
11/01/98,03:30:01,48,18,-11,390,950
11/01/98,03:35:01,45,335,-12,381,950
11/01/98,03:40:01,36,1,-12,382,950
11/01/98,03:45:01,44,353,-12,315,950
11/01/98,03:50:01,30,13,-11,331,950
11/01/98,03:55:01,46,2,-11,344,950
11/01/98,04:00:01,13,5,-10,360,950
11/01/98,04:05:01,56,3,-11,318,950
11/01/98,04:10:01,26,347,-11,357,950
11/01/98,04:15:01,29,10,-11,312,950
11/01/98,04:20:01,34,8,-11,344,950
11/01/98,04:25:01,19,352,-12,342,950
11/01/98,04:30:01,20,1,-11,279,950
11/01/98,04:35:01,32,352,-11,281,950
11/01/98,04:40:01,39,352,-11,294,950
11/01/98,04:45:01,51,359,-12,297,950
11/01/98,04:50:01,37,7,-12,284,950
11/01/98,04:55:01,27,17,-11,293,950
11/01/98,05:00:01,29,6,-12,311,950
11/01/98,05:05:01,36,6,-11,315,950
11/01/98,05:10:01,30,354,-11,302,950
11/01/98,05:15:01,32,356,-11,348,950
11/01/98,05:20:01,24,358,-10,380,950
11/01/98,05:25:01,20,4,-10,333,950
11/01/98,05:30:01,17,1,-10,309,950
11/01/98,05:35:01,17,5,-9,290,950
11/01/98,05:40:01,13,331,-9,300,950
11/01/98,05:45:01,24,333,-8,278,950
11/01/98,05:50:01,25,333,-9,203,950
11/01/98,05:55:01,21,320,-9,146,950
11/01/98,06:00:01,21,329,-9,135,950
11/01/98,06:05:01,25,337,-10,155,950
11/01/98,06:10:01,16,350,-9,187,950
11/01/98,06:15:01,17,349,-9,235,950
11/01/98,06:20:01,16,342,-8,258,950
11/01/98,06:25:01,14,346,-8,282,950
11/01/98,06:30:01,27,349,-8,291,950
11/01/98,06:35:01,26,349,-8,291,950
11/01/98,06:40:01,22,339,-8,287,950
11/01/98,06:45:01,29,327,-8,285,950
11/01/98,06:50:01,29,331,-8,281,950
11/01/98,06:55:01,23,333,-8,275,950
11/01/98,07:00:01,24,335,-8,269,950
11/01/98,07:05:01,28,319,-8,261,950
11/01/98,07:10:01,28,319,-8,247,950
11/01/98,07:15:01,19,319,-8,241,950
11/01/98,07:20:01,29,318,-9,224,950
11/01/98,07:25:01,29,325,-9,215,950
11/01/98,07:30:01,39,329,-10,191,950
11/01/98,07:35:01,36,325,-12,180,950
11/01/98,07:40:01,33,325,-13,172,950
11/01/98,07:45:01,34,332,-13,168,950
11/01/98,07:50:01,34,321,-14,178,950
11/01/98,07:55:01,24,321,-15,184,950
11/01/98,08:00:01,24,321,-15,180,950
11/01/98,08:05:01,34,321,-15,192,950
11/01/98,08:10:01,33,321,-14,192,950
11/01/98,08:15:01,33,321,-14,186,950
11/01/98,08:20:01,33,321,-13,182,950
11/01/98,08:25:01,21,321,-13,178,950
11/01/98,08:30:01,31,331,-12,172,950
11/01/98,08:35:01,31,321,-13,168,950
11/01/98,08:40:01,31,310,-13,162,950
11/01/98,08:45:01,31,310,-12,156,950
11/01/98,08:50:01,31,321,-12,152,950
11/01/98,08:55:01,31,311,-12,148,950
11/01/98,09:00:01,31,311,-12,146,950
11/01/98,09:05:01,31,311,-12,138,950
11/01/98,09:10:01,18,311,-12,132,950
11/01/98,09:15:01,30,311,-12,126,950
11/01/98,09:20:01,30,311,-13,120,950
11/01/98,09:25:01,30,311,-13,93,950
11/01/98,09:30:01,20,311,-14,36,950
11/01/98,09:35:01,20,311,-14,34,950
11/01/98,09:40:01,30,300,-14,34,950
11/01/98,09:45:01,20,300,-14,75,950
11/01/98,09:50:01,21,300,-14,109,950
11/01/98,09:55:01,21,300,-15,109,950
11/01/98,10:00:01,21,300,-15,107,950
11/01/98,10:05:01,31,300,-16,103,950
11/01/98,10:10:01,21,300,-17,101,950
11/01/98,10:15:01,21,300,-18,97,950
11/01/98,10:20:01,20,300,-18,95,950
11/01/98,10:25:01,20,300,-18,93,950
11/01/98,10:30:01,20,300,-19,91,950
11/01/98,10:35:01,20,300,-19,87,950
11/01/98,10:40:01,20,300,-19,85,950
11/01/98,10:45:01,10,312,-19,83,950
11/01/98,10:50:01,20,312,-19,81,950
11/01/98,10:55:01,20,312,-20,79,950
11/01/98,11:00:01,10,312,-20,77,950
11/01/98,11:05:01,10,312,-20,75,950
11/01/98,11:10:01,10,312,-20,73,950
11/01/98,11:15:01,10,312,-20,71,950
11/01/98,11:20:01,23,302,-20,69,950
11/01/98,11:25:01,23,302,-20,69,950
11/01/98,11:30:01,23,302,-20,67,950
11/01/98,11:35:01,23,302,-20,67,950
11/01/98,11:40:01,23,302,-20,65,950
11/01/98,11:45:01,23,302,-20,63,950
11/01/98,11:50:01,23,292,-20,63,950
11/01/98,11:55:01,23,292,-20,63,950
11/01/98,12:00:01,23,292,-20,61,950
11/01/98,12:05:01,24,292,-20,61,950
11/01/98,12:10:01,24,292,-20,59,950
11/01/98,12:15:01,24,292,-20,59,950
11/01/98,12:20:01,24,292,-20,59,950
11/01/98,12:25:01,24,292,-20,59,950
11/01/98,12:30:01,24,292,-20,57,950
11/01/98,12:35:01,24,292,-20,57,950
11/01/98,12:40:01,24,292,-20,57,950
11/01/98,12:45:01,24,292,-20,57,950
11/01/98,12:50:01,14,292,-20,57,950
11/01/98,12:55:01,14,292,-21,57,950
11/01/98,13:00:01,14,292,-21,57,950
11/01/98,13:05:01,14,292,-21,57,950
11/01/98,13:10:01,25,292,-21,57,950
11/01/98,13:15:01,25,292,-21,57,950
11/01/98,13:20:01,25,292,-21,59,950
11/01/98,13:25:01,25,292,-20,59,950
11/01/98,13:30:01,25,292,-20,59,950
11/01/98,13:35:01,15,292,-21,61,950
11/01/98,13:40:01,15,292,-21,63,950
11/01/98,13:45:01,15,292,-21,63,950
11/01/98,13:50:01,15,292,-21,65,948
11/01/98,13:55:01,15,292,-21,65,948
11/01/98,14:00:01,15,292,-21,49,948
11/01/98,14:05:01,15,292,-21,22,948
11/01/98,14:10:01,15,292,-21,53,948
11/01/98,14:15:01,15,292,-21,74,948
11/01/98,14:20:01,3,292,-21,78,948
11/01/98,14:25:01,3,292,-21,76,948
11/01/98,14:30:01,3,292,-21,81,948
11/01/98,14:35:01,3,292,-21,83,948
11/01/98,14:40:01,3,292,-21,85,948
11/01/98,14:45:01,3,292,-21,87,948
11/01/98,14:50:01,3,292,-21,91,948
11/01/98,14:55:01,3,224,-21,93,948
11/01/98,15:00:01,13,203,-21,97,948
11/01/98,15:05:01,13,193,-21,99,948
11/01/98,15:10:01,24,193,-21,103,948
11/01/98,15:15:01,34,193,-21,107,948
11/01/98,15:20:01,47,183,-21,111,948
11/01/98,15:25:01,91,169,-21,115,948
11/01/98,15:30:01,128,169,-22,111,948
11/01/98,15:35:01,120,169,-22,115,948
11/01/98,15:40:01,117,169,-22,110,948
11/01/98,15:45:01,140,181,-22,110,948
11/01/98,15:50:01,114,187,-23,110,948
11/01/98,15:55:01,87,187,-23,112,948
11/01/98,16:00:01,94,187,-22,114,948
11/01/98,16:05:01,69,187,-22,116,948
11/01/98,16:10:01,57,177,-22,120,948
11/01/98,16:15:01,45,177,-22,124,948
11/01/98,16:20:01,45,177,-22,126,948
11/01/98,16:25:01,23,177,-22,130,948
11/01/98,16:30:01,13,177,-22,134,948
11/01/98,16:35:01,1,177,-21,138,948
11/01/98,16:40:01,1,177,-21,142,948
11/01/98,16:45:01,1,158,-21,146,948
11/01/98,16:50:01,11,135,-21,148,948
11/01/98,16:55:01,12,135,-21,150,948
11/01/98,17:00:01,13,113,-21,154,948
11/01/98,17:05:01,13,113,-21,158,948
11/01/98,17:10:01,26,113,-21,164,948
11/01/98,17:15:01,23,103,-21,166,948
11/01/98,17:20:01,23,91,-21,170,948
11/01/98,17:25:01,34,101,-21,174,948
11/01/98,17:30:01,44,101,-21,176,948
11/01/98,17:35:01,35,98,-21,180,948
11/01/98,17:40:01,35,112,-21,184,948
11/01/98,17:45:01,40,125,-21,188,948
11/01/98,17:50:01,27,97,-21,190,948
11/01/98,17:55:01,18,85,-21,195,948
11/01/98,18:00:01,13,63,-21,197,948
11/01/98,18:05:01,13,133,-21,205,948
11/01/98,18:10:01,7,102,-21,207,948
11/01/98,18:15:01,3,20,-21,209,948
11/01/98,18:20:01,1,20,-21,213,948
11/01/98,18:25:01,1,295,-21,217,948
11/01/98,18:30:01,2,349,-21,221,948
11/01/98,18:35:01,2,284,-21,224,948
11/01/98,18:40:01,2,295,-21,228,948
11/01/98,18:45:01,2,336,-22,230,948
11/01/98,18:50:01,3,301,-22,234,948
11/01/98,18:55:01,3,314,-22,238,950
11/01/98,19:00:01,3,187,-21,240,950
11/01/98,19:05:01,3,201,-21,242,950
11/01/98,19:10:01,11,197,-21,244,950
11/01/98,19:15:01,9,221,-21,246,950
11/01/98,19:20:01,3,215,-22,248,950
11/01/98,19:25:01,0,256,-22,252,950
11/01/98,19:30:01,9,170,-22,257,950
11/01/98,19:35:01,46,185,-23,260,950
11/01/98,19:40:01,97,186,-23,264,950
11/01/98,19:45:01,70,186,-23,266,950
11/01/98,19:50:01,92,186,-23,268,950
11/01/98,19:55:01,82,197,-23,268,950
11/01/98,20:00:01,95,197,-23,270,950
11/01/98,20:05:01,83,199,-23,272,950
11/01/98,20:10:01,66,185,-23,276,950
11/01/98,20:15:01,66,175,-23,279,950
11/01/98,20:20:01,37,175,-23,281,950
11/01/98,20:25:01,37,166,-23,285,950
11/01/98,20:30:01,59,177,-23,287,950
11/01/98,20:35:01,79,177,-23,291,950
11/01/98,20:40:01,62,180,-23,293,950
11/01/98,20:45:01,106,168,-23,298,950
11/01/98,20:50:01,139,178,-23,302,950
11/01/98,20:55:01,156,178,-23,307,950
11/01/98,21:00:01,155,178,-23,311,950
11/01/98,21:05:01,168,168,-23,315,950
11/01/98,21:10:01,180,179,-23,317,950
11/01/98,21:15:01,199,169,-23,323,950
11/01/98,21:20:01,193,169,-23,327,950
11/01/98,21:25:01,206,179,-23,332,950
11/01/98,21:30:01,209,180,-23,336,950
11/01/98,21:35:01,196,169,-23,340,950
11/01/98,21:40:01,219,176,-23,344,950
11/01/98,21:45:01,217,176,-23,348,950
11/01/98,21:50:01,232,176,-23,354,950
11/01/98,21:55:01,223,166,-23,358,950
11/01/98,22:00:01,310,171,-23,362,950
11/01/98,22:05:01,245,182,-23,366,950
11/01/98,22:10:01,247,179,-23,372,950
11/01/98,22:15:01,257,179,-23,377,950
11/01/98,22:20:01,254,179,-23,381,950
11/01/98,22:25:01,292,164,-23,386,950
11/01/98,22:30:01,263,174,-23,392,950
11/01/98,22:35:01,220,174,-23,394,950
11/01/98,22:40:01,238,174,-23,395,950
11/01/98,22:45:01,249,172,-23,403,950
11/01/98,22:50:01,231,172,-23,406,950
11/01/98,22:55:01,262,165,-23,409,950
11/01/98,23:00:01,285,177,-23,415,950
11/01/98,23:05:01,299,166,-23,419,950
11/01/98,23:10:01,298,177,-23,421,950
11/01/98,23:15:01,268,166,-23,425,950
11/01/98,23:20:01,219,183,-23,431,950
11/01/98,23:25:01,247,170,-22,436,950
11/01/98,23:30:01,214,177,-23,440,950
11/01/98,23:35:01,191,163,-22,444,950
11/01/98,23:40:01,222,163,-22,448,950
11/01/98,23:45:01,236,163,-22,450,950
11/01/98,23:50:01,243,173,-22,455,950
11/01/98,23:55:01,264,172,-22,459,950
11/02/98,00:00:01,259,172,-23,465,950
